Location: Newark
(43.4956°N, 70.4470°W)
Time: 18:05:57
(UTC+00:00)

ISS - Visible Passes

Search period start: 14 December 2019 00:00
Search period end: 24 December 2019 00:00
Orbit: 411 x 421 km, 51.6° (Epoch: 15 December)

Date Brightness Start Highest point End Pass type
(mag) Time Alt. Az. Time Alt. Az. Time Alt. Az.
19 Dec -0.6 11:33:16 10° S 11:35:35 18° SE 11:37:54 10° E visible
20 Dec -0.1 10:46:38 10° SE 10:47:15 10° SE 10:47:53 10° ESE visible
21 Dec -2.6 11:31:47 10° SW 11:34:58 46° SE 11:38:11 10° ENE visible
22 Dec -1.6 10:43:40 10° SSW 10:46:31 27° SE 10:49:25 10° ENE visible
23 Dec -0.9 09:55:58 10° S 09:58:08 16° SE 10:00:19 10° E visible
23 Dec -3.8 11:31:14 10° WSW 11:34:32 69° NNW 11:37:51 10° NE visible
